This is the latest recevied weather packets stored in our database for station/object MARKET. If no packets are shown the sender has not sent any weather packets the latest 10 day(s).
| Time | Temp. | Humidity | Pressure | Rain* | Wind** | Luminosity | Snow |
|---|---|---|---|---|---|---|---|
| 1777554419 | 7.78° C | 78% | 1025.5 hPa | - | - | - | - |
| 1777553219 | 7.78° C | 78% | 1025.6 hPa | - | - | - | - |
| 1777552020 | 8.33° C | 76% | 1025.6 hPa | - | - | - | - |
| 1777550819 | 7.78° C | 79% | 1025.7 hPa | - | - | - | - |
| 1777549620 | 7.78° C | 78% | 1025.7 hPa | - | - | - | - |
| 1777548419 | 7.78° C | 79% | 1025.6 hPa | - | - | - | - |
| 1777547219 | 7.22° C | 78% | 1025.5 hPa | - | - | - | - |
| 1777546019 | 7.78° C | 79% | 1025.5 hPa | - | - | - | - |
| 1777544820 | 7.22° C | 79% | 1025.4 hPa | - | - | - | - |
| 1777543619 | 6.67° C | 81% | 1025.3 hPa | - | - | - | - |
| 1777542419 | 6.67° C | 81% | 1025.3 hPa | - | - | - | - |
| 1777541219 | 6.67° C | 82% | 1025.5 hPa | - | - | - | - |
| 1777540018 | 6.67° C | 83% | 1025.3 hPa | - | - | - | - |
| 1777538818 | 6.67° C | 82% | 1025.2 hPa | - | - | - | - |
| 1777537619 | 6.67° C | 83% | 1025.2 hPa | - | - | - | - |
| 1777536419 | 6.67° C | 82% | 1025.2 hPa | - | - | - | - |
| 1777535219 | 6.67° C | 81% | 1025.2 hPa | - | - | - | - |
| 1777534019 | 6.67° C | 82% | 1025.1 hPa | - | - | - | - |
| 1777532819 | 6.67° C | 82% | 1025 hPa | - | - | - | - |
| 1777531619 | 6.67° C | 84% | 1024.8 hPa | - | - | - | - |
| 1777530419 | 6.67° C | 86% | 1024.8 hPa | - | - | - | - |
| 1777529421 | 6.67° C | 86% | 1024.8 hPa | - | - | - | - |
| 1777528018 | 6.67° C | 86% | 1024.8 hPa | - | - | - | - |
| 1777526818 | 6.67° C | 86% | 1024.8 hPa | - | - | - | - |
| 1777525618 | 6.67° C | 86% | 1024.6 hPa | - | - | - | - |
* Rain since midnight (hover to see other rain measurements)
** Current wind speed in m/s (hover to see current wind gust speed)